SCP
-0 -0 -0 -0 -0 -0 -0 -0 -0 -0 -0 -0 -0 -0 -0 -0 -0 0 0 -0 0 0 0 0 0 -0 0 0 0 0 0 0 0 0 0 0 0 0 0 0 0 0 0 0 0
-0 -0 -0 -0 -0 -0 -0 -0 -0 0 -0 -0 -0 -0 -0 -0 0 0 0 0 0 -0 0 0 0 0 0 0 -0 0 -0 -0 0 0 -0 -0 0 0 0 0 0 1 0 0 0
-0 -0 0 -0 -0 0 0 0 0 0 0 0 0 0 0 0 0 0 0 0 -0 -0 0 0 0 0 -0 0 -0 0 -0 -0 0 0 0 -0 -0 0 0 0 0 0 0 0 0
0 0 0 0 0 0 0 0 0 0 0 0 0 0 0 0 0 0 0 0 0 0 0 0 0 0 -0 0 0 0 -0 -0 -0 -0 -0 0 0 0 -0 0 0 -0 -0 0 -0
0 0 0 0 0 0 0 0 0 0 0 0 0 0 0 0 0 0 0 0 0 0 0 0 0 0 0 0 0 0 0 -0 -0 0 0 -0 -0 0 -0 0 -0 -0 0 -0 -0
0 0 0 0 0 0 0 0 0 0 0 0 0 0 0 0 0 0 0 0 0 0 0 0 0 0 0 0 0 0 0 -0 -0 0 0 -0 -0 0 0 -1 -1 -0 -0 0 0
-0 -0 -0 -0 -0 -0 -0 -0 0 0 0 0 0 0 0 0 0 0 0 0 0 0 0 0 0 0 0 0 0 0 0 0 0 0 -0 -0 -0 -0 0 -1 -1 -0 -0 0 0
-0 -0 -0 -0 -0 -0 -0 -0 -0 -0 0 0 0 0 0 0 0 0 0 0 0 0 0 0 0 0 0 0 0 0 0 0 0 0 -0 -0 0 -0 0 -1 -1 -0 0 0 -0
-0 -0 -0 -0 -0 -0 -0 -0 -0 0 0 0 0 0 0 0 0 0 0 0 0 0 0 0 0 0 0 0 0 0 0 0 0 -0 0 0 0 0 0 -0 -1 -0 0 0 0
-0 -0 -0 -0 -0 -0 -0 -0 0 0 0 0 0 0 0 0 0 0 0 0 0 0 0 0 0 0 0 0 0 0 0 0 -0 0 0 0 0 0 0 -0 -0 -0 0 0 0
0 0 0 -0 -0 -0 0 0 0 0 0 0 0 0 -0 -0 0 -0 0 0 0 0 0 0 0 0 0 0 0 0 0 0 -0 0 0 0 0 0 0 0 0 0 0 0 0
0 0 -0 -0 -0 0 0 0 0 0 0 0 0 0 0 0 0 -0 -0 0 0 0 0 0 0 0 0 0 0 0 0 0 0 0 0 0 0 0 -0 0 0 0 0 0 0
0 0 0 -0 -0 0 0 0 0 0 0 0 0 0 0 0 0 0 0 0 0 0 0 0 0 0 0 0 0 0 0 0 0 0 0 0 0 0 0 0 0 0 0 0 -0
0 0 0 -0 0 0 0 0 0 0 0 0 0 0 0 0 0 0 0 0 0 0 0 0 0 0 0 0 0 0 0 0 0 0 0 0 0 0 0 0 -0 0 0 0 -1
0 0 0 -0 0 0 0 0 0 0 0 0 0 0 0 0 0 0 0 0 0 0 0 0 0 0 0 0 0 0 0 0 0 0 0 0 0 0 0 0 0 0 0 1 -1
0 0 -0 0 0 0 0 0 0 0 0 0 0 0 0 0 0 0 0 0 0 0 0 0 0 0 0 0 0 0 0 0 0 -0 0 0 0 0 0 0 0 0 0 1 0
0 0 0 0 0 0 0 0 0 0 0 0 0 0 0 0 0 0 0 0 0 0 0 0 0 0 0 0 0 0 0 0 0 0 0 0 0 0 0 0 0 0 0 1 0
0 0 0 0 0 -0 0 0 0 0 0 0 0 0 0 0 0 0 0 0 0 0 0 0 0 0 0 0 -0 0 0 0 0 0 0 0 0 0 -0 0 -0 0 0 1 0
0 0 0 0 0 0 0 0 0 0 0 0 0 0 0 0 0 0 0 0 0 0 0 0 0 0 -0 -0 -0 0 0 0 0 0 0 0 0 0 -0 -0 -0 0 0 0 -0
0 0 0 0 0 0 0 0 0 0 0 0 0 0 0 0 0 0 0 0 0 0 0 0 0 0 0 -0 -0 -0 0 0 0 0 0 0 0 0 0 0 0 1 0 1 2
0 0 0 0 0 0 0 0 0 0 0 0 0 0 0 0 0 0 0 0 0 0 0 0 0 0 0 -0 -0 -0 -0 0 0 -0 -0 -0 -0 -0 0 0 -0 0 1 1 2
0 0 0 0 0 0 0 0 0 0 0 0 0 0 0 0 0 -0 0 0 0 0 0 0 0 0 -0 0 0 0 0 0 0 0 0 0 -0 -0 -0 -0 -0 1 2 2 1
0 0 0 0 0 0 0 0 0 0 0 0 0 0 0 0 -0 0 0 0 0 0 0 0 0 0 0 0 0 0 0 0 0 0 0 0 -0 0 0 0 0 1 2 2 1
0 0 0 0 0 0 0 0 0 0 0 0 0 -0 0 0 0 0 0 0 0 0 0 0 0 0 -0 0 0 0 0 0 0 0 0 0 0 0 0 0 0 0 1 2 2
0 0 0 0 0 0 0 0 0 0 0 0 0 0 0 0 0 0 0 0 0 0 0 0 0 0 0 0 0 0 0 0 0 0 0 0 0 0 0 0 0 0 0 0 1
0 0 0 0 0 0 0 0 0 0 0 0 0 0 0 0 0 0 0 0 0 0 0 0 0 0 0 0 0 0 1 1 1 1 1 1 1 1 1 1 1 1 1 1 0
0 0 0 0 0 0 0 0 0 0 0 0 0 0 0 -0 0 0 0 0 0 0 0 0 0 0 0 0 0 0 0 0 0 0 1 1 1 1 1 1 1 2 2 2 1
Wind_Speed_500mb
36 37 36 35 35 34 34 33 33 34 35 35 34 36 37 39 37 37 40 24 18 16 14 13 12 8 16 19 25 12 4 8 8 6 15 4 9 24 24 43 27 31 21 20 65
36 38 40 40 39 37 36 36 36 36 36 36 37 38 41 42 43 33 8 7 11 15 13 13 16 14 12 10 14 13 7 12 12 7 12 14 16 37 13 31 2 27 21 54 61
35 36 38 40 41 42 42 39 38 38 38 38 37 36 39 42 40 5 10 11 6 11 16 18 22 18 14 13 10 10 8 9 26 30 13 16 32 18 33 9 31 62 64 68 67
36 38 39 40 41 43 44 45 43 40 40 39 38 36 36 34 11 12 8 13 9 15 19 21 15 8 7 8 6 7 19 17 19 52 7 7 12 11 46 15 51 65 74 76 70
40 41 40 41 43 44 43 44 46 45 41 40 38 37 34 21 40 35 40 31 19 20 28 27 21 13 8 7 6 9 9 28 38 53 53 23 18 23 46 21 53 71 77 77 67
41 43 45 46 47 47 46 44 43 45 45 42 39 35 30 20 18 18 16 13 23 25 33 34 21 16 13 12 6 10 24 32 38 45 27 19 13 28 18 47 75 75 82 76 69
45 46 47 48 49 50 48 47 47 44 43 42 40 36 34 65 30 47 51 42 31 25 31 32 33 21 2 10 5 9 12 15 20 13 8 27 26 9 30 78 81 77 84 80 71
50 52 54 55 55 54 50 48 45 42 39 38 38 34 31 52 47 50 56 55 46 49 36 27 15 19 12 16 9 6 6 6 10 16 10 18 20 37 33 74 73 74 74 81 79
54 56 58 57 58 55 52 44 36 27 26 25 22 19 27 28 29 28 16 28 33 37 33 29 21 16 17 3 10 13 10 9 20 11 3 6 27 26 40 70 69 69 70 74 78
50 52 55 54 54 55 44 32 26 6 23 10 5 11 31 28 21 28 36 26 26 37 33 29 17 5 7 6 14 10 7 8 8 11 12 23 31 17 44 59 69 68 68 71 81
53 55 56 55 55 46 35 17 29 9 42 27 46 53 72 44 61 60 45 43 26 18 12 15 8 15 27 16 8 6 8 17 18 28 3 28 24 10 36 42 40 58 64 66 74
53 54 56 55 52 24 34 17 25 24 36 67 67 65 70 70 44 66 35 15 13 16 10 6 16 18 10 9 14 10 13 22 22 30 11 22 22 14 24 46 61 66 61 64 59
55 56 60 54 41 24 25 24 24 33 13 40 23 16 26 13 29 67 43 24 10 11 19 32 19 14 9 13 13 11 12 30 18 34 8 11 16 12 5 26 52 59 78 68 85
50 51 55 54 17 40 9 21 20 21 8 15 14 6 28 11 13 37 50 48 14 18 17 24 18 21 17 19 15 18 24 24 23 11 19 8 14 14 14 7 20 62 64 71 77
48 52 49 52 46 40 19 22 17 1 7 6 14 8 45 10 34 19 45 31 28 19 11 16 18 13 21 35 16 27 14 19 22 17 3 11 3 14 4 19 14 23 62 72 89
46 47 54 48 42 17 20 21 5 10 10 14 13 22 27 12 15 23 18 25 27 15 8 15 16 10 24 33 19 14 7 7 7 7 6 16 14 10 9 15 15 25 65 77 78
51 46 50 44 31 21 14 11 10 6 11 13 12 22 17 12 18 13 16 4 12 10 10 6 14 13 16 12 5 8 11 13 10 6 16 13 7 17 13 18 25 22 58 79 89
47 42 30 22 10 5 2 10 4 5 10 10 13 19 9 17 24 19 20 16 9 10 6 12 24 14 13 17 20 14 18 11 11 15 21 10 13 14 18 24 42 57 60 82 82
42 24 11 16 10 8 3 7 11 9 7 16 18 9 10 16 4 16 11 6 10 4 8 11 11 16 10 15 17 11 10 18 8 1 3 10 16 17 12 20 16 27 48 75 81
44 16 9 6 8 4 9 6 6 7 14 4 6 5 8 21 18 15 12 8 16 26 3 6 4 4 10 4 6 14 10 4 2 6 9 10 11 12 17 17 15 7 17 51 65
32 7 0 13 6 6 6 10 11 20 22 5 15 11 15 9 7 9 10 15 14 20 14 11 6 13 3 8 15 7 4 7 6 9 11 4 13 13 16 12 20 15 25 49 72
13 5 6 19 5 5 3 8 14 24 34 15 8 8 8 8 9 4 7 8 33 16 10 6 5 4 17 17 12 15 11 12 10 13 7 8 14 10 12 19 17 19 27 31 35
23 8 7 15 1 5 12 11 10 9 12 10 6 3 4 6 9 6 11 20 30 13 4 8 5 7 19 14 10 5 12 15 10 10 15 8 15 7 21 25 11 26 42 42 45
10 7 4 5 6 6 8 10 11 27 15 18 6 8 5 9 5 9 15 12 48 20 19 9 4 10 9 16 12 11 14 11 10 7 8 8 13 27 32 24 38 56 18 28 43
10 3 6 6 5 7 4 6 11 13 10 14 10 8 3 8 14 9 7 16 30 19 17 6 4 9 14 19 10 3 24 10 10 10 9 6 6 25 20 17 28 50 54 44 39
6 8 11 11 16 9 6 6 6 14 8 13 7 19 4 4 9 13 5 8 13 16 13 7 7 5 6 14 10 7 30 17 14 16 23 16 16 20 23 45 51 49 51 54 44
3 5 6 8 8 4 3 8 10 23 13 13 10 9 11 5 24 46 50 40 25 5 9 3 4 8 10 29 8 6 10 19 7 11 5 6 6 7 25 35 48 55 56 41 35
Wind_Direction_500mb
349 347 344 342 339 336 334 332 329 326 325 324 322 321 318 316 312 302 291 289 263 241 253 250 253 255 243 234 230 222 332 284 265 255 289 211 144 179 170 145 162 198 190 189 168
346 343 341 339 336 334 331 328 325 322 320 320 320 321 319 320 317 307 307 292 220 218 252 257 271 275 248 235 202 160 175 229 233 261 332 283 202 164 131 159 30 140 171 166 173
341 337 334 333 332 331 329 327 324 321 318 316 315 317 318 321 323 178 86 37 216 225 248 263 284 259 221 222 205 191 223 287 289 307 345 277 224 181 132 229 193 157 165 174 180
340 337 334 328 324 322 322 321 320 319 316 312 311 311 313 314 292 183 229 325 267 270 260 261 266 225 240 227 204 315 248 263 300 322 340 209 190 185 178 210 198 183 172 173 180
342 338 335 331 325 321 317 313 311 312 311 309 307 307 310 291 272 280 278 273 250 268 266 256 248 211 225 251 287 226 293 303 323 323 323 335 174 194 218 250 182 173 170 175 182
345 339 337 333 327 322 319 316 310 301 298 302 304 300 299 279 294 313 322 293 267 284 284 256 245 232 253 245 176 241 283 301 317 311 351 2 319 190 198 178 167 174 177 182 184
348 343 341 337 328 321 321 323 314 299 290 288 294 293 280 261 282 287 287 281 273 285 297 280 268 224 223 305 306 272 315 321 294 307 346 337 322 208 188 169 165 181 183 187 191
341 340 339 339 334 326 323 327 317 303 297 285 282 281 264 283 281 272 270 282 253 263 279 280 264 263 241 278 332 358 75 317 278 350 334 49 282 296 184 167 173 185 188 189 195
336 337 336 335 333 329 328 332 328 323 305 300 280 251 269 260 275 281 283 307 302 253 248 265 283 269 288 91 0 2 249 264 317 134 249 85 293 303 213 181 172 190 193 195 198
328 331 333 334 336 331 336 333 320 245 354 316 356 299 258 269 289 272 287 319 318 254 243 245 200 161 19 92 237 210 247 246 253 283 342 304 286 300 191 182 183 191 195 199 200
329 332 334 337 341 338 351 9 19 338 310 287 285 276 279 278 294 285 286 296 292 218 184 220 166 197 225 196 227 213 256 266 269 274 343 283 276 255 184 195 193 198 200 200 207
328 330 333 335 343 354 355 50 23 330 296 299 290 277 276 278 290 273 298 240 184 193 192 251 224 225 260 205 230 216 260 273 290 265 156 281 268 271 189 203 200 202 206 200 200
330 331 330 331 338 344 354 17 353 339 279 311 320 292 321 278 237 263 250 243 206 208 205 221 221 215 196 250 239 238 210 267 242 298 220 269 294 318 247 209 211 211 211 201 199
327 328 330 333 338 337 359 340 333 312 25 284 348 6 357 295 261 303 282 226 204 207 218 231 246 220 223 244 159 262 227 251 272 319 278 112 276 300 296 267 222 209 206 208 199
326 328 332 332 321 327 327 341 322 182 349 287 340 353 342 261 291 336 319 205 218 198 127 237 215 190 222 231 165 244 251 230 256 255 235 265 171 260 331 301 240 208 205 206 202
324 328 327 323 324 336 317 338 5 46 260 325 7 337 351 318 301 312 319 219 218 188 200 222 240 215 230 245 179 244 297 55 56 95 233 241 175 237 233 223 275 193 204 204 202
324 329 322 312 307 306 316 351 39 130 339 346 335 333 331 308 314 315 325 229 170 143 230 220 238 245 214 269 131 153 63 293 320 330 230 241 173 240 228 245 229 228 204 206 201
327 333 329 327 272 249 52 51 109 274 276 306 345 320 315 5 319 323 350 6 323 50 99 199 262 186 207 185 197 186 153 163 264 278 283 292 238 260 236 258 284 276 230 206 196
335 354 78 69 66 137 121 72 205 220 300 354 328 342 316 325 267 353 335 326 349 323 191 161 258 269 259 246 156 216 159 200 171 358 85 250 288 315 297 315 331 316 190 192 190
341 3 101 108 60 59 70 239 249 242 322 340 259 256 277 315 328 7 335 332 339 338 119 245 301 250 301 349 245 173 175 222 44 242 273 281 280 246 304 302 321 341 184 182 185
342 356 110 186 158 19 119 237 273 284 301 260 263 255 259 252 253 302 300 297 355 316 337 25 88 289 355 189 248 323 160 131 126 147 193 271 272 239 270 300 278 247 188 180 181
357 13 89 166 345 19 162 210 301 296 322 252 225 220 251 276 282 262 260 249 330 326 336 330 135 301 250 272 241 175 226 159 125 272 244 186 261 294 312 293 259 146 176 177 186
343 317 162 205 286 326 304 291 259 310 299 309 289 331 324 309 338 288 338 292 338 338 301 312 357 6 345 355 13 346 276 208 153 129 224 182 276 46 8 334 334 145 165 171 181
1 8 4 112 111 93 348 284 317 317 267 329 291 338 341 0 351 301 328 312 321 320 335 121 118 153 195 237 275 300 281 146 131 124 175 212 298 6 353 352 353 350 17 111 93
9 5 8 317 333 351 272 280 327 342 312 355 340 360 332 347 339 323 279 316 323 342 347 76 258 164 230 265 265 34 285 174 113 161 118 355 72 4 352 357 358 17 28 41 75
16 3 346 300 302 335 350 355 310 335 267 306 324 308 103 131 184 272 283 226 248 314 341 347 283 276 311 293 3 43 355 16 78 99 100 108 67 21 47 45 31 28 28 35 22
336 301 297 297 330 7 184 334 298 338 288 336 329 323 316 248 292 278 262 253 243 259 281 190 98 23 305 333 345 333 26 335 65 34 108 114 154 73 66 56 47 31 32 35 45
Wind_Speed_850mb
36 37 36 35 35 34 34 33 33 34 35 35 34 36 37 39 37 37 40 24 18 16 14 13 12 8 16 19 25 12 4 8 8 6 15 4 9 24 24 43 27 31 21 20 65
36 38 40 40 39 37 36 36 36 36 36 36 37 38 41 42 43 33 8 7 11 15 13 13 16 14 12 10 14 13 7 12 12 7 12 14 16 37 13 31 2 27 21 54 61
35 36 38 40 41 42 42 39 38 38 38 38 37 36 39 42 40 5 10 11 6 11 16 18 22 18 14 13 10 10 8 9 26 30 13 16 32 18 33 9 31 62 64 68 67
36 38 39 40 41 43 44 45 43 40 40 39 38 36 36 34 11 12 8 13 9 15 19 21 15 8 7 8 6 7 19 17 19 52 7 7 12 11 46 15 51 65 74 76 70
40 41 40 41 43 44 43 44 46 45 41 40 38 37 34 21 40 35 40 31 19 20 28 27 21 13 8 7 6 9 9 28 38 53 53 23 18 23 46 21 53 71 77 77 67
41 43 45 46 47 47 46 44 43 45 45 42 39 35 30 20 18 18 16 13 23 25 33 34 21 16 13 12 6 10 24 32 38 45 27 19 13 28 18 47 75 75 82 76 69
45 46 47 48 49 50 48 47 47 44 43 42 40 36 34 65 30 47 51 42 31 25 31 32 33 21 2 10 5 9 12 15 20 13 8 27 26 9 30 78 81 77 84 80 71
50 52 54 55 55 54 50 48 45 42 39 38 38 34 31 52 47 50 56 55 46 49 36 27 15 19 12 16 9 6 6 6 10 16 10 18 20 37 33 74 73 74 74 81 79
54 56 58 57 58 55 52 44 36 27 26 25 22 19 27 28 29 28 16 28 33 37 33 29 21 16 17 3 10 13 10 9 20 11 3 6 27 26 40 70 69 69 70 74 78
50 52 55 54 54 55 44 32 26 6 23 10 5 11 31 28 21 28 36 26 26 37 33 29 17 5 7 6 14 10 7 8 8 11 12 23 31 17 44 59 69 68 68 71 81
53 55 56 55 55 46 35 17 29 9 42 27 46 53 72 44 61 60 45 43 26 18 12 15 8 15 27 16 8 6 8 17 18 28 3 28 24 10 36 42 40 58 64 66 74
53 54 56 55 52 24 34 17 25 24 36 67 67 65 70 70 44 66 35 15 13 16 10 6 16 18 10 9 14 10 13 22 22 30 11 22 22 14 24 46 61 66 61 64 59
55 56 60 54 41 24 25 24 24 33 13 40 23 16 26 13 29 67 43 24 10 11 19 32 19 14 9 13 13 11 12 30 18 34 8 11 16 12 5 26 52 59 78 68 85
50 51 55 54 17 40 9 21 20 21 8 15 14 6 28 11 13 37 50 48 14 18 17 24 18 21 17 19 15 18 24 24 23 11 19 8 14 14 14 7 20 62 64 71 77
48 52 49 52 46 40 19 22 17 1 7 6 14 8 45 10 34 19 45 31 28 19 11 16 18 13 21 35 16 27 14 19 22 17 3 11 3 14 4 19 14 23 62 72 89
46 47 54 48 42 17 20 21 5 10 10 14 13 22 27 12 15 23 18 25 27 15 8 15 16 10 24 33 19 14 7 7 7 7 6 16 14 10 9 15 15 25 65 77 78
51 46 50 44 31 21 14 11 10 6 11 13 12 22 17 12 18 13 16 4 12 10 10 6 14 13 16 12 5 8 11 13 10 6 16 13 7 17 13 18 25 22 58 79 89
47 42 30 22 10 5 2 10 4 5 10 10 13 19 9 17 24 19 20 16 9 10 6 12 24 14 13 17 20 14 18 11 11 15 21 10 13 14 18 24 42 57 60 82 82
42 24 11 16 10 8 3 7 11 9 7 16 18 9 10 16 4 16 11 6 10 4 8 11 11 16 10 15 17 11 10 18 8 1 3 10 16 17 12 20 16 27 48 75 81
44 16 9 6 8 4 9 6 6 7 14 4 6 5 8 21 18 15 12 8 16 26 3 6 4 4 10 4 6 14 10 4 2 6 9 10 11 12 17 17 15 7 17 51 65
32 7 0 13 6 6 6 10 11 20 22 5 15 11 15 9 7 9 10 15 14 20 14 11 6 13 3 8 15 7 4 7 6 9 11 4 13 13 16 12 20 15 25 49 72
13 5 6 19 5 5 3 8 14 24 34 15 8 8 8 8 9 4 7 8 33 16 10 6 5 4 17 17 12 15 11 12 10 13 7 8 14 10 12 19 17 19 27 31 35
23 8 7 15 1 5 12 11 10 9 12 10 6 3 4 6 9 6 11 20 30 13 4 8 5 7 19 14 10 5 12 15 10 10 15 8 15 7 21 25 11 26 42 42 45
10 7 4 5 6 6 8 10 11 27 15 18 6 8 5 9 5 9 15 12 48 20 19 9 4 10 9 16 12 11 14 11 10 7 8 8 13 27 32 24 38 56 18 28 43
10 3 6 6 5 7 4 6 11 13 10 14 10 8 3 8 14 9 7 16 30 19 17 6 4 9 14 19 10 3 24 10 10 10 9 6 6 25 20 17 28 50 54 44 39
6 8 11 11 16 9 6 6 6 14 8 13 7 19 4 4 9 13 5 8 13 16 13 7 7 5 6 14 10 7 30 17 14 16 23 16 16 20 23 45 51 49 51 54 44
3 5 6 8 8 4 3 8 10 23 13 13 10 9 11 5 24 46 50 40 25 5 9 3 4 8 10 29 8 6 10 19 7 11 5 6 6 7 25 35 48 55 56 41 35
Wind_Direction_850mb
349 347 344 342 339 336 334 332 329 326 325 324 322 321 318 316 312 302 291 289 263 241 253 250 253 255 243 234 230 222 332 284 265 255 289 211 144 179 170 145 162 198 190 189 168
346 343 341 339 336 334 331 328 325 322 320 320 320 321 319 320 317 307 307 292 220 218 252 257 271 275 248 235 202 160 175 229 233 261 332 283 202 164 131 159 30 140 171 166 173
341 337 334 333 332 331 329 327 324 321 318 316 315 317 318 321 323 178 86 37 216 225 248 263 284 259 221 222 205 191 223 287 289 307 345 277 224 181 132 229 193 157 165 174 180
340 337 334 328 324 322 322 321 320 319 316 312 311 311 313 314 292 183 229 325 267 270 260 261 266 225 240 227 204 315 248 263 300 322 340 209 190 185 178 210 198 183 172 173 180
342 338 335 331 325 321 317 313 311 312 311 309 307 307 310 291 272 280 278 273 250 268 266 256 248 211 225 251 287 226 293 303 323 323 323 335 174 194 218 250 182 173 170 175 182
345 339 337 333 327 322 319 316 310 301 298 302 304 300 299 279 294 313 322 293 267 284 284 256 245 232 253 245 176 241 283 301 317 311 351 2 319 190 198 178 167 174 177 182 184
348 343 341 337 328 321 321 323 314 299 290 288 294 293 280 261 282 287 287 281 273 285 297 280 268 224 223 305 306 272 315 321 294 307 346 337 322 208 188 169 165 181 183 187 191
341 340 339 339 334 326 323 327 317 303 297 285 282 281 264 283 281 272 270 282 253 263 279 280 264 263 241 278 332 358 75 317 278 350 334 49 282 296 184 167 173 185 188 189 195
336 337 336 335 333 329 328 332 328 323 305 300 280 251 269 260 275 281 283 307 302 253 248 265 283 269 288 91 0 2 249 264 317 134 249 85 293 303 213 181 172 190 193 195 198
328 331 333 334 336 331 336 333 320 245 354 316 356 299 258 269 289 272 287 319 318 254 243 245 200 161 19 92 237 210 247 246 253 283 342 304 286 300 191 182 183 191 195 199 200
329 332 334 337 341 338 351 9 19 338 310 287 285 276 279 278 294 285 286 296 292 218 184 220 166 197 225 196 227 213 256 266 269 274 343 283 276 255 184 195 193 198 200 200 207
328 330 333 335 343 354 355 50 23 330 296 299 290 277 276 278 290 273 298 240 184 193 192 251 224 225 260 205 230 216 260 273 290 265 156 281 268 271 189 203 200 202 206 200 200
330 331 330 331 338 344 354 17 353 339 279 311 320 292 321 278 237 263 250 243 206 208 205 221 221 215 196 250 239 238 210 267 242 298 220 269 294 318 247 209 211 211 211 201 199
327 328 330 333 338 337 359 340 333 312 25 284 348 6 357 295 261 303 282 226 204 207 218 231 246 220 223 244 159 262 227 251 272 319 278 112 276 300 296 267 222 209 206 208 199
326 328 332 332 321 327 327 341 322 182 349 287 340 353 342 261 291 336 319 205 218 198 127 237 215 190 222 231 165 244 251 230 256 255 235 265 171 260 331 301 240 208 205 206 202
324 328 327 323 324 336 317 338 5 46 260 325 7 337 351 318 301 312 319 219 218 188 200 222 240 215 230 245 179 244 297 55 56 95 233 241 175 237 233 223 275 193 204 204 202
324 329 322 312 307 306 316 351 39 130 339 346 335 333 331 308 314 315 325 229 170 143 230 220 238 245 214 269 131 153 63 293 320 330 230 241 173 240 228 245 229 228 204 206 201
327 333 329 327 272 249 52 51 109 274 276 306 345 320 315 5 319 323 350 6 323 50 99 199 262 186 207 185 197 186 153 163 264 278 283 292 238 260 236 258 284 276 230 206 196
335 354 78 69 66 137 121 72 205 220 300 354 328 342 316 325 267 353 335 326 349 323 191 161 258 269 259 246 156 216 159 200 171 358 85 250 288 315 297 315 331 316 190 192 190
341 3 101 108 60 59 70 239 249 242 322 340 259 256 277 315 328 7 335 332 339 338 119 245 301 250 301 349 245 173 175 222 44 242 273 281 280 246 304 302 321 341 184 182 185
342 356 110 186 158 19 119 237 273 284 301 260 263 255 259 252 253 302 300 297 355 316 337 25 88 289 355 189 248 323 160 131 126 147 193 271 272 239 270 300 278 247 188 180 181
357 13 89 166 345 19 162 210 301 296 322 252 225 220 251 276 282 262 260 249 330 326 336 330 135 301 250 272 241 175 226 159 125 272 244 186 261 294 312 293 259 146 176 177 186
343 317 162 205 286 326 304 291 259 310 299 309 289 331 324 309 338 288 338 292 338 338 301 312 357 6 345 355 13 346 276 208 153 129 224 182 276 46 8 334 334 145 165 171 181
1 8 4 112 111 93 348 284 317 317 267 329 291 338 341 0 351 301 328 312 321 320 335 121 118 153 195 237 275 300 281 146 131 124 175 212 298 6 353 352 353 350 17 111 93
9 5 8 317 333 351 272 280 327 342 312 355 340 360 332 347 339 323 279 316 323 342 347 76 258 164 230 265 265 34 285 174 113 161 118 355 72 4 352 357 358 17 28 41 75
16 3 346 300 302 335 350 355 310 335 267 306 324 308 103 131 184 272 283 226 248 314 341 347 283 276 311 293 3 43 355 16 78 99 100 108 67 21 47 45 31 28 28 35 22
336 301 297 297 330 7 184 334 298 338 288 336 329 323 316 248 292 278 262 253 243 259 281 190 98 23 305 333 345 333 26 335 65 34 108 114 154 73 66 56 47 31 32 35 45